Hourly Weather Podrubezh

Today, 26 October, Monday

Time Temperature Precipitation Wind Pressure Humidity
00:00 +9°C° 0 mm 1 mps 749 mmHg 95%
01:00 +8°C° 0 mm 2 mps 749 mmHg 95%
02:00 +8°C° 0 mm 2 mps 749 mmHg 95%
03:00 +8°C° 0 mm 2 mps 749 mmHg 95%
04:00 +8°C° 0 mm 2 mps 749 mmHg 96%
05:00 +7°C° 0 mm 2 mps 749 mmHg 96%
06:00 +8°C° 0 mm 3 mps 749 mmHg 96%
07:00 +8°C° 0 mm 3 mps 749 mmHg 95%
08:00 +8°C° 0 mm 3 mps 749 mmHg 95%
09:00 +8°C° 0 mm 4 mps 749 mmHg 90%
10:00 +10°C° 0 mm 4 mps 749 mmHg 86%
11:00 +11°C° 0 mm 4 mps 749 mmHg 81%
12:00 +12°C° 0 mm 5 mps 748 mmHg 79%
13:00 +12°C° 0 mm 5 mps 748 mmHg 77%
14:00 +13°C° 0 mm 5 mps 748 mmHg 75%
15:00 +12°C° 0 mm 4 mps 748 mmHg 78%
16:00 +11°C° 0 mm 4 mps 748 mmHg 81%
17:00 +10°C° 0 mm 4 mps 747 mmHg 84%
18:00 +10°C° 0 mm 4 mps 748 mmHg 85%
19:00 +10°C° 0 mm 4 mps 748 mmHg 85%
20:00 +8°C° 0 mm 4 mps 748 mmHg 86%
21:00 +8°C° 0 mm 4 mps 748 mmHg 87%
22:00 +8°C° 0 mm 4 mps 748 mmHg 88%
23:00 +7°C° 0 mm 4 mps 748 mmHg 89%

Tomorrow, 27 October, Tuesday

Time Temperature Precipitation Wind Pressure Humidity
00:00 +7°C° 0 mm 4 mps 748 mmHg 88%
01:00 +7°C° 0 mm 4 mps 748 mmHg 88%
02:00 +7°C° 0 mm 4 mps 748 mmHg 88%
03:00 +7°C° 0 mm 4 mps 748 mmHg 88%
04:00 +7°C° 0 mm 4 mps 748 mmHg 88%
05:00 +7°C° 0 mm 4 mps 748 mmHg 88%
06:00 +7°C° 0 mm 4 mps 748 mmHg 87%
07:00 +7°C° 0 mm 4 mps 748 mmHg 86%
08:00 +7°C° 0 mm 4 mps 748 mmHg 86%
09:00 +8°C° 0 mm 5 mps 748 mmHg 81%
10:00 +9°C° 0 mm 5 mps 748 mmHg 77%
11:00 +12°C° 0 mm 5 mps 748 mmHg 73%
12:00 +12°C° 0 mm 5 mps 748 mmHg 71%
13:00 +13°C° 0 mm 5 mps 748 mmHg 69%
14:00 +13°C° 0 mm 5 mps 748 mmHg 68%
15:00 +12°C° 0 mm 5 mps 748 mmHg 71%
16:00 +12°C° 0 mm 4 mps 748 mmHg 75%
17:00 +11°C° 0 mm 4 mps 748 mmHg 79%
18:00 +10°C° 0 mm 4 mps 748 mmHg 80%
19:00 +10°C° 0 mm 4 mps 748 mmHg 81%
20:00 +10°C° 0 mm 4 mps 748 mmHg 81%
21:00 +8°C° 0 mm 4 mps 748 mmHg 81%
22:00 +8°C° 0 mm 4 mps 748 mmHg 81%
23:00 +8°C° 0 mm 4 mps 748 mmHg 80%

Day after tomorrow, 28 October, Wednesday

Time Temperature Precipitation Wind Pressure Humidity
00:00 +8°C° 0 mm 4 mps 748 mmHg 81%
01:00 +7°C° 0 mm 4 mps 748 mmHg 82%
02:00 +7°C° 0 mm 4 mps 748 mmHg 83%
03:00 +7°C° 0 mm 4 mps 748 mmHg 85%
04:00 +7°C° 0 mm 4 mps 748 mmHg 87%
05:00 +7°C° 0 mm 4 mps 748 mmHg 88%
06:00 +7°C° 0 mm 4 mps 748 mmHg 89%
07:00 +7°C° 0 mm 4 mps 748 mmHg 89%
08:00 +7°C° 0 mm 4 mps 748 mmHg 89%
09:00 +8°C° 0 mm 4 mps 748 mmHg 85%
10:00 +10°C° 0 mm 4 mps 748 mmHg 82%
11:00 +12°C° 0 mm 4 mps 749 mmHg 78%
12:00 +12°C° 0 mm 4 mps 748 mmHg 76%
13:00 +13°C° 0 mm 4 mps 748 mmHg 74%
14:00 +14°C° 0 mm 4 mps 748 mmHg 73%
15:00 +13°C° 0 mm 4 mps 748 mmHg 76%
16:00 +12°C° 0 mm 4 mps 748 mmHg 79%
17:00 +11°C° 0 mm 3 mps 748 mmHg 83%
18:00 +10°C° 0 mm 3 mps 748 mmHg 83%
19:00 +10°C° 0 mm 3 mps 748 mmHg 83%
20:00 +8°C° 0 mm 4 mps 749 mmHg 82%
21:00 +9°C° 0 mm 3 mps 749 mmHg 83%
22:00 +9°C° 0 mm 3 mps 749 mmHg 84%
23:00 +8°C° 0 mm 3 mps 749 mmHg 85%

29 October, Thursday

Time Temperature Precipitation Wind Pressure Humidity
00:00 +8°C° 0 mm 3 mps 749 mmHg 87%
01:00 +7°C° 0 mm 3 mps 748 mmHg 88%
02:00 +7°C° 0 mm 3 mps 748 mmHg 90%
03:00 +7°C° 0 mm 3 mps 748 mmHg 91%
04:00 +5°C° 0 mm 3 mps 748 mmHg 92%
05:00 +5°C° 0 mm 3 mps 748 mmHg 93%
06:00 +5°C° 0 mm 3 mps 748 mmHg 92%
07:00 +5°C° 0 mm 3 mps 748 mmHg 91%
08:00 +5°C° 0 mm 3 mps 748 mmHg 90%
09:00 +7°C° 0 mm 3 mps 748 mmHg 85%
10:00 +9°C° 0 mm 3 mps 748 mmHg 79%
11:00 +10°C° 0 mm 3 mps 748 mmHg 74%
12:00 +10°C° 0 mm 3 mps 748 mmHg 73%
13:00 +11°C° 0 mm 3 mps 748 mmHg 71%
14:00 +12°C° 0 mm 3 mps 748 mmHg 70%
15:00 +11°C° 0 mm 3 mps 748 mmHg 74%
16:00 +10°C° 0 mm 2 mps 748 mmHg 78%
17:00 +9°C° 0 mm 2 mps 748 mmHg 82%
18:00 +9°C° 0 mm 2 mps 748 mmHg 83%
19:00 +9°C° 0 mm 2 mps 748 mmHg 84%
20:00 +8°C° 0 mm 2 mps 748 mmHg 85%
21:00 +8°C° 0 mm 2 mps 748 mmHg 86%
22:00 +8°C° 0 mm 2 mps 748 mmHg 87%
23:00 +8°C° 0 mm 2 mps 748 mmHg 88%

30 October, Friday

Time Temperature Precipitation Wind Pressure Humidity
00:00 +8°C° 0 mm 2 mps 748 mmHg 90%
01:00 +9°C° 0 mm 1 mps 748 mmHg 91%
02:00 +9°C° 0 mm 1 mps 748 mmHg 92%
03:00 +10°C° 0 mm 1 mps 748 mmHg 93%
04:00 +10°C° 0 mm 1 mps 748 mmHg 93%
05:00 +10°C° 0 mm 1 mps 748 mmHg 94%
06:00 +10°C° 0 mm 1 mps 749 mmHg 94%
07:00 +8°C° 0 mm 2 mps 749 mmHg 95%
08:00 +8°C° 0 mm 2 mps 749 mmHg 96%
09:00 +9°C° 0 mm 2 mps 749 mmHg 90%
10:00 +10°C° 0 mm 2 mps 749 mmHg 85%
11:00 +12°C° 0 mm 2 mps 749 mmHg 79%
12:00 +12°C° 0 mm 3 mps 749 mmHg 75%
13:00 +12°C° 0 mm 3 mps 749 mmHg 71%
14:00 +12°C° 0 mm 3 mps 749 mmHg 67%
15:00 +11°C° 0 mm 3 mps 749 mmHg 71%
16:00 +10°C° 0 mm 3 mps 749 mmHg 76%
17:00 +9°C° 0 mm 2 mps 749 mmHg 80%
18:00 +9°C° 0 mm 3 mps 749 mmHg 81%
19:00 +9°C° 0 mm 3 mps 749 mmHg 82%
20:00 +9°C° 0 mm 3 mps 749 mmHg 83%
21:00 +9°C° 0 mm 3 mps 749 mmHg 82%
22:00 +9°C° 0 mm 3 mps 749 mmHg 81%
23:00 +10°C° 0 mm 4 mps 749 mmHg 80%

31 October, Saturday

Time Temperature Precipitation Wind Pressure Humidity
00:00 +10°C° 0.1 mm 4 mps 749 mmHg 82%
01:00 +10°C° 0.1 mm 3 mps 749 mmHg 84%
02:00 +9°C° 0.1 mm 3 mps 749 mmHg 87%
03:00 +9°C° 0.1 mm 3 mps 749 mmHg 87%
04:00 +10°C° 0.1 mm 3 mps 749 mmHg 88%
05:00 +10°C° 0.1 mm 3 mps 749 mmHg 88%
06:00 +10°C° 0 mm 3 mps 749 mmHg 89%
07:00 +9°C° 0 mm 3 mps 749 mmHg 90%
08:00 +9°C° 0 mm 3 mps 749 mmHg 91%
Show more